Location: Bushrod
(6.3500°N, 10.7833°W)
Time: 09:51:30
(UTC+00:00)

Ariane Rocket - Pass Details

Date: 17 September 2019
Orbit: 761 x 769 km, 98.8° (Epoch: 19 October)

Event Time Altitude Azimuth Distance (km) Brightness Sun altitude
Exits shadow 20:08:03 12° 166° (SSE) 2,148 5.1 -22.2°
Maximum altitude 20:12:45 86° 77° (ENE) 766 2.8 -23.4°
Drops below altitude 10° 20:17:47 10° 349° (N) 2,287 5.6 -24.6°
Sets 20:20:05 0° 349° (NNW) 3,212 6.4 -25.2°
